Sisseton, SD

6:31 PM CDT on July 20, 2017 (GMT -0500)
Sisseton

Weather History for K8D3 - March, 2014

Change the Weather History Date:

Wednesday, March 12, 2014

  Actual Average Record
Temperature  
Mean Temperature 29 °F 28 °F  
Max Temperature 37 °F 37 °F 71 °F (2016)
Min Temperature 21 °F 19 °F -14 °F (2009)
Degree Days  
Heating Degree Days 36 37  
Month to date heating degree days 530 471  
Since 1 July heating degree days 7347 6730  
Cooling Degree Days 0 0  
Month to date cooling degree days 0 0  
Year to date cooling degree days 0 0  
Moisture  
Dew Point 22 °F    
Average Humidity 84    
Maximum Humidity 92    
Minimum Humidity 75    
Precipitation  
Precipitation 0.02 in 0.03 in 1.30 in (1977)
Month to date precipitation 0.13 0.41  
Year to date precipitation 0.75 1.27  
Snow  
Snow 0.40 in - - ()
Month to date snowfall 1.5  
Since 1 July snowfall 23.4  
Snow Depth 0.00 in    
Sea Level Pressure  
Sea Level Pressure 30.15 in    
Wind  
Wind Speed 8 mph (SE)    
Max Wind Speed 14 mph    
Max Gust Speed -    
T = Trace of Precipitation, MM = Missing Value Source: NWS Daily Summary

Daily Weather History Graph

Daily Weather History Graph

Search for Another Location

Airport or City:

Trip Planner

Search our weather history database for the weather conditions in past years. The results will help you decide how hot, cold, wet, or windy it might be!

Date:

Astronomy

Mar. 12, 2014 Rise Set
Actual Time 7:46 AM CDT 7:29 PM CDT
Civil Twilight 7:16 AM CDT 7:59 PM CDT
Nautical Twilight 6:42 AM CDT 8:34 PM CDT
Astronomical Twilight 6:07 AM CDT 9:09 PM CDT
Moon 3:53 PM CDT (3/12) 5:27 AM CDT (3/12)
Length of Visible Light 12h 42m
Length of Day
11h 43m
Waxing Gibbous, 85% of the Moon is Illuminated
Mar 12
Waxing Gibbous
Mar 16
Full
Mar 23
Last Quarter
Mar 30
New
Apr 7
First Quarter

Hourly Weather History & Observations

Time (CDT) Temp. Windchill Dew Point Humidity Pressure Visibility Wind Dir Wind Speed Gust Speed Precip Events Conditions
12:56 AM 24.1 °F 16.0 °F 19.0 °F 81% 30.22 in - North 6.9 mph - N/A   Unknown
1:56 AM 24.1 °F 17.0 °F 19.9 °F 84% 30.21 in - NNW 5.8 mph - N/A   Unknown
2:56 AM 24.1 °F 19.7 °F 19.9 °F 84% 30.20 in - North 3.5 mph - N/A   Unknown
3:56 AM 23.0 °F 13.9 °F 19.9 °F 88% 30.19 in - NNE 8.1 mph - 0.01 in   Unknown
4:56 AM 23.0 °F 15.8 °F 19.9 °F 88% 30.18 in - NNE 5.8 mph - 0.01 in   Unknown
5:56 AM 21.9 °F 14.5 °F 19.0 °F 89% 30.20 in - NE 5.8 mph - N/A   Unknown
6:56 AM 21.9 °F 15.7 °F 18.0 °F 85% 30.20 in - East 4.6 mph - N/A   Unknown
7:56 AM 21.9 °F 14.5 °F 18.0 °F 85% 30.21 in - ESE 5.8 mph - N/A   Unknown
8:56 AM 21.0 °F 14.6 °F 18.0 °F 88% 30.20 in - SE 4.6 mph - N/A   Unknown
9:56 AM 21.9 °F 14.5 °F 19.0 °F 89% 30.20 in - SSE 5.8 mph - N/A   Unknown
10:56 AM 23.0 °F 15.8 °F 19.0 °F 85% 30.21 in - SSE 5.8 mph - N/A   Unknown
11:56 AM 24.1 °F 16.0 °F 19.9 °F 84% 30.19 in - South 6.9 mph - N/A   Unknown
12:56 PM 26.1 °F 16.8 °F 19.9 °F 78% 30.19 in - SE 9.2 mph - N/A   Unknown
1:56 PM 28.0 °F 19.3 °F 23.0 °F 81% 30.16 in - SSE 9.2 mph - N/A   Unknown
2:56 PM 30.0 °F 21.1 °F 25.0 °F 82% 30.13 in - SSE 10.4 mph - N/A   Unknown
3:56 PM 32.0 °F 22.1 °F 26.1 °F 79% 30.10 in - South 13.8 mph - N/A   Unknown
4:56 PM 34.0 °F 25.0 °F 27.0 °F 75% 30.07 in - South 12.7 mph - N/A   Unknown
5:56 PM 36.0 °F 28.5 °F 28.9 °F 76% 30.05 in - South 10.4 mph - N/A   Unknown
6:56 PM 35.1 °F 27.9 °F 28.9 °F 78% 30.04 in - SSE 9.2 mph - N/A   Unknown
7:56 PM 33.1 °F 24.9 °F 28.9 °F 85% 30.03 in - SSE 10.4 mph - N/A   Unknown
8:56 PM 33.1 °F 24.9 °F 28.9 °F 85% 30.02 in - South 10.4 mph - N/A   Unknown